UAL255 KCLE-KIAD

Flight info

Callsign UAL255
Flight time 0h 48m
Altitude 35000
Route KKIDS1 NUSMM MGW GIBBZ5
Aircraft B738/M-SDE2E3FGHIRWXY/LB1

Departure

Time 2026-05-04 21:00
Airport Cleveland Hopkins International Airport (KCLE)

Arrival

Time 2026-05-04 21:49
Airport Washington Dulles International Airport (KIAD)
Time Latitude Longitude Altitude Speed Heading
2026-05-04 20:40 41.40669 -81.84249 794 ft 0 kts 38°
2026-05-04 20:53 41.40649 -81.84267 794 ft 4 kts 22°
2026-05-04 20:53 41.40624 -81.84274 794 ft 4 kts 343°
2026-05-04 20:54 41.40611 -81.84260 794 ft 2 kts 271°
2026-05-04 20:54 41.40611 -81.84259 794 ft 1 kts 271°
2026-05-04 20:56 41.40611 -81.84288 794 ft 8 kts 271°
2026-05-04 20:56 41.40612 -81.84349 794 ft 11 kts 271°
2026-05-04 20:56 41.40645 -81.84428 794 ft 10 kts 340°
2026-05-04 20:56 41.40716 -81.84429 794 ft 10 kts 359°
2026-05-04 20:57 41.40789 -81.84432 794 ft 12 kts 358°
2026-05-04 20:57 41.40885 -81.84434 794 ft 16 kts 360°
2026-05-04 20:57 41.40982 -81.84486 794 ft 15 kts 318°
2026-05-04 20:57 41.41061 -81.84575 795 ft 15 kts 320°
2026-05-04 20:58 41.41146 -81.84590 795 ft 14 kts 50°
2026-05-04 20:58 41.41207 -81.84492 794 ft 13 kts 50°
2026-05-04 20:58 41.41266 -81.84399 794 ft 13 kts 50°
2026-05-04 20:58 41.41323 -81.84309 794 ft 13 kts 50°
2026-05-04 20:59 41.41379 -81.84221 794 ft 12 kts 50°
2026-05-04 20:59 41.41441 -81.84150 794 ft 12 kts 10°
2026-05-04 20:59 41.41505 -81.84208 793 ft 12 kts 295°
2026-05-04 20:59 41.41472 -81.84301 792 ft 12 kts 229°
2026-05-04 21:00 41.41327 -81.84529 794 ft 64 kts 230°
2026-05-04 21:00 41.40895 -81.85212 793 ft 127 kts 230°
2026-05-04 21:00 41.40220 -81.86264 947 ft 162 kts 229°
2026-05-04 21:00 41.39454 -81.87358 1623 ft 166 kts 225°
2026-05-04 21:01 41.38612 -81.88453 2257 ft 172 kts 213°
2026-05-04 21:01 41.37421 -81.88854 2744 ft 189 kts 176°
2026-05-04 21:01 41.36034 -81.88621 3059 ft 213 kts 174°
2026-05-04 21:01 41.34494 -81.88360 3331 ft 233 kts 174°
2026-05-04 21:02 41.32820 -81.88099 3619 ft 254 kts 174°
2026-05-04 21:02 41.31116 -81.87274 4204 ft 268 kts 147°
2026-05-04 21:02 41.29694 -81.85667 5126 ft 272 kts 130°
2026-05-04 21:02 41.28746 -81.83494 5714 ft 278 kts 118°
2026-05-04 21:03 41.27887 -81.81139 6307 ft 282 kts 118°
2026-05-04 21:03 41.27025 -81.78775 7117 ft 284 kts 118°
2026-05-04 21:03 41.26145 -81.76408 7885 ft 288 kts 118°
2026-05-04 21:03 41.25250 -81.74044 8582 ft 293 kts 119°
2026-05-04 21:04 41.24319 -81.71619 9323 ft 296 kts 119°
2026-05-04 21:04 41.23372 -81.69169 10050 ft 299 kts 119°
2026-05-04 21:04 41.22407 -81.66660 10482 ft 316 kts 117°
2026-05-04 21:04 41.21849 -81.63749 10750 ft 337 kts 95°
2026-05-04 21:05 41.21679 -81.60596 11300 ft 346 kts 95°
2026-05-04 21:05 41.21469 -81.57373 11923 ft 353 kts 96°
2026-05-04 21:05 41.21231 -81.54112 12647 ft 356 kts 96°
2026-05-04 21:05 41.20970 -81.50811 13378 ft 361 kts 97°
2026-05-04 21:06 41.20695 -81.47486 14098 ft 364 kts 97°
2026-05-04 21:06 41.20168 -81.44191 14799 ft 367 kts 114°
2026-05-04 21:06 41.18771 -81.41384 15519 ft 366 kts 136°
2026-05-04 21:06 41.16742 -81.39367 16224 ft 365 kts 156°
2026-05-04 21:07 41.14402 -81.38045 16907 ft 368 kts 161°
2026-05-04 21:07 41.12010 -81.36822 17534 ft 372 kts 161°
2026-05-04 21:07 41.09568 -81.35605 18174 ft 376 kts 161°
2026-05-04 21:07 41.07100 -81.34374 18829 ft 380 kts 161°
2026-05-04 21:08 41.04621 -81.33127 19442 ft 384 kts 161°
2026-05-04 21:08 41.02107 -81.31851 20045 ft 387 kts 161°
2026-05-04 21:08 40.99587 -81.30564 20608 ft 391 kts 161°
2026-05-04 21:08 40.97032 -81.29254 21159 ft 395 kts 161°
2026-05-04 21:09 40.94458 -81.27931 21732 ft 398 kts 161°
2026-05-04 21:09 40.91869 -81.26599 22279 ft 401 kts 161°
2026-05-04 21:09 40.89257 -81.25255 22798 ft 405 kts 161°
2026-05-04 21:09 40.86619 -81.23899 23307 ft 408 kts 161°
2026-05-04 21:10 40.83981 -81.22544 23797 ft 411 kts 161°
2026-05-04 21:10 40.81277 -81.21156 24280 ft 415 kts 161°
2026-05-04 21:10 40.78583 -81.19775 24761 ft 418 kts 161°
2026-05-04 21:10 40.75861 -81.18380 25229 ft 421 kts 161°
2026-05-04 21:11 40.73128 -81.16981 25687 ft 423 kts 161°
2026-05-04 21:11 40.70371 -81.15571 26124 ft 426 kts 161°
2026-05-04 21:11 40.67600 -81.14155 26551 ft 428 kts 161°
2026-05-04 21:11 40.64815 -81.12733 26959 ft 431 kts 161°
2026-05-04 21:12 40.62011 -81.11303 27352 ft 433 kts 161°
2026-05-04 21:12 40.59196 -81.09870 27764 ft 435 kts 161°
2026-05-04 21:12 40.56369 -81.08431 28215 ft 436 kts 160°
2026-05-04 21:12 40.53573 -81.07008 28570 ft 438 kts 160°
2026-05-04 21:13 40.50680 -81.05538 28910 ft 441 kts 160°
2026-05-04 21:13 40.47809 -81.04081 29269 ft 443 kts 160°
2026-05-04 21:13 40.44973 -81.02642 29603 ft 445 kts 160°
2026-05-04 21:13 40.42042 -81.01157 29926 ft 447 kts 160°
2026-05-04 21:14 40.39129 -80.99682 30234 ft 449 kts 160°
2026-05-04 21:14 40.36209 -80.98204 30619 ft 449 kts 160°
2026-05-04 21:14 40.33343 -80.96755 31051 ft 447 kts 160°
2026-05-04 21:14 40.30398 -80.95267 31456 ft 447 kts 160°
2026-05-04 21:15 40.27537 -80.93824 31810 ft 447 kts 160°
2026-05-04 21:15 40.24638 -80.92364 32161 ft 446 kts 160°
2026-05-04 21:15 40.21747 -80.90909 32528 ft 446 kts 160°
2026-05-04 21:15 40.18856 -80.89454 32901 ft 445 kts 160°
2026-05-04 21:16 40.15961 -80.87999 33217 ft 445 kts 160°
2026-05-04 21:16 40.13077 -80.86552 33553 ft 445 kts 160°
2026-05-04 21:16 40.10187 -80.85101 33871 ft 444 kts 160°
2026-05-04 21:16 40.07312 -80.83625 34144 ft 446 kts 156°
2026-05-04 21:17 40.04634 -80.81582 34392 ft 448 kts 143°
2026-05-04 21:17 40.02285 -80.78909 34722 ft 448 kts 134°
2026-05-04 21:17 39.98584 -80.72297 34856 ft 455 kts 123°
2026-05-04 21:18 39.95233 -80.65308 34833 ft 452 kts 122°
2026-05-04 21:18 39.91897 -80.58425 34852 ft 448 kts 123°
2026-05-04 21:19 39.88525 -80.51584 34856 ft 449 kts 123°
2026-05-04 21:19 39.85133 -80.44754 34865 ft 450 kts 123°
2026-05-04 21:20 39.81746 -80.37955 34670 ft 442 kts 123°
2026-05-04 21:20 39.80110 -80.34673 34406 ft 434 kts 123°
2026-05-04 21:20 39.78471 -80.31390 34015 ft 431 kts 123°
2026-05-04 21:21 39.76848 -80.28140 33658 ft 428 kts 123°
2026-05-04 21:21 39.75235 -80.24916 33289 ft 425 kts 123°
2026-05-04 21:21 39.73627 -80.21702 32921 ft 422 kts 123°
2026-05-04 21:21 39.72035 -80.18524 32556 ft 419 kts 123°
2026-05-04 21:22 39.70449 -80.15363 32192 ft 416 kts 123°
2026-05-04 21:22 39.68880 -80.12237 31825 ft 413 kts 123°
2026-05-04 21:22 39.67308 -80.09108 31460 ft 411 kts 123°
2026-05-04 21:22 39.65749 -80.06010 31100 ft 408 kts 123°
2026-05-04 21:23 39.64203 -80.02938 30736 ft 406 kts 123°
2026-05-04 21:23 39.62661 -79.99879 30389 ft 403 kts 123°
2026-05-04 21:23 39.61134 -79.96850 30035 ft 401 kts 123°
2026-05-04 21:23 39.59617 -79.93845 29670 ft 399 kts 123°
2026-05-04 21:24 39.58094 -79.90832 29304 ft 396 kts 123°
2026-05-04 21:24 39.56613 -79.87854 28940 ft 393 kts 120°
2026-05-04 21:24 39.55447 -79.84652 28614 ft 389 kts 109°
2026-05-04 21:24 39.54728 -79.81304 28390 ft 383 kts 103°
2026-05-04 21:25 39.54144 -79.77961 28038 ft 380 kts 102°
2026-05-04 21:25 39.53576 -79.74621 27694 ft 378 kts 102°
2026-05-04 21:25 39.53004 -79.71305 27345 ft 376 kts 102°
2026-05-04 21:25 39.52427 -79.68021 26995 ft 374 kts 103°
2026-05-04 21:26 39.51842 -79.64754 26646 ft 372 kts 103°
2026-05-04 21:26 39.51254 -79.61495 26294 ft 370 kts 103°
2026-05-04 21:26 39.50669 -79.58262 25947 ft 368 kts 103°
2026-05-04 21:26 39.50083 -79.55038 25594 ft 367 kts 103°
2026-05-04 21:27 39.49499 -79.51820 25227 ft 366 kts 103°
2026-05-04 21:27 39.48922 -79.48611 24810 ft 367 kts 103°
2026-05-04 21:27 39.48345 -79.45394 24458 ft 365 kts 103°
2026-05-04 21:27 39.47776 -79.42240 24104 ft 364 kts 103°
2026-05-04 21:28 39.47201 -79.39059 23757 ft 362 kts 103°
2026-05-04 21:28 39.46612 -79.35853 23400 ft 361 kts 103°
2026-05-04 21:28 39.46040 -79.32748 23062 ft 359 kts 103°
2026-05-04 21:28 39.45459 -79.29605 22715 ft 358 kts 103°
2026-05-04 21:29 39.44883 -79.26481 22371 ft 356 kts 103°
2026-05-04 21:29 39.44309 -79.23374 22031 ft 355 kts 103°
2026-05-04 21:29 39.43734 -79.20271 21681 ft 353 kts 103°
2026-05-04 21:29 39.43169 -79.17196 21353 ft 352 kts 103°
2026-05-04 21:30 39.42625 -79.14114 21021 ft 350 kts 103°
2026-05-04 21:30 39.42091 -79.11042 20637 ft 351 kts 103°
2026-05-04 21:30 39.41555 -79.07959 20422 ft 356 kts 103°
2026-05-04 21:30 39.40996 -79.04760 20197 ft 371 kts 103°
2026-05-04 21:31 39.39846 -78.98210 19549 ft 372 kts 103°
2026-05-04 21:31 39.39271 -78.94952 19156 ft 370 kts 103°
2026-05-04 21:31 39.38700 -78.91728 18774 ft 368 kts 103°
2026-05-04 21:32 39.38126 -78.88517 18399 ft 365 kts 103°
2026-05-04 21:32 39.37553 -78.85325 18015 ft 363 kts 103°
2026-05-04 21:32 39.36983 -78.82158 17637 ft 361 kts 103°
2026-05-04 21:32 39.36415 -78.79010 17252 ft 359 kts 103°
2026-05-04 21:33 39.35850 -78.75882 16866 ft 357 kts 103°
2026-05-04 21:33 39.35290 -78.72771 16494 ft 355 kts 103°
2026-05-04 21:33 39.34730 -78.69669 16110 ft 354 kts 103°
2026-05-04 21:33 39.34172 -78.66582 15758 ft 352 kts 103°
2026-05-04 21:34 39.33616 -78.63515 15420 ft 350 kts 103°
2026-05-04 21:34 39.33062 -78.60462 15054 ft 348 kts 103°
2026-05-04 21:34 39.32509 -78.57421 14679 ft 347 kts 103°
2026-05-04 21:34 39.31962 -78.54395 14278 ft 346 kts 103°
2026-05-04 21:35 39.31417 -78.51364 13901 ft 346 kts 103°
2026-05-04 21:35 39.30873 -78.48339 13523 ft 345 kts 103°
2026-05-04 21:35 39.30331 -78.45328 13144 ft 344 kts 103°
2026-05-04 21:35 39.29791 -78.42328 12763 ft 343 kts 103°
2026-05-04 21:36 39.29251 -78.39335 12387 ft 342 kts 103°
2026-05-04 21:36 39.28710 -78.36352 12015 ft 341 kts 104°
2026-05-04 21:36 39.28152 -78.33377 11598 ft 341 kts 104°
2026-05-04 21:36 39.27588 -78.30420 11228 ft 339 kts 104°
2026-05-04 21:37 39.27023 -78.27477 10863 ft 337 kts 104°
2026-05-04 21:37 39.26463 -78.24544 10502 ft 336 kts 105°
2026-05-04 21:37 39.25909 -78.21657 10342 ft 327 kts 105°
2026-05-04 21:37 39.25370 -78.18853 10185 ft 318 kts 105°
2026-05-04 21:38 39.24844 -78.16113 10044 ft 310 kts 105°
2026-05-04 21:38 39.24339 -78.13486 9954 ft 300 kts 105°
2026-05-04 21:38 39.23831 -78.10851 9603 ft 301 kts 105°
2026-05-04 21:38 39.23334 -78.08275 9332 ft 299 kts 105°
2026-05-04 21:39 39.22835 -78.05696 9033 ft 298 kts 105°
2026-05-04 21:39 39.22326 -78.03060 8736 ft 296 kts 105°
2026-05-04 21:39 39.21833 -78.00500 8448 ft 294 kts 105°
2026-05-04 21:39 39.21343 -77.97973 8163 ft 293 kts 105°
2026-05-04 21:40 39.20865 -77.95496 7887 ft 292 kts 105°
2026-05-04 21:40 39.20373 -77.92954 7604 ft 291 kts 105°
2026-05-04 21:40 39.19882 -77.90438 7320 ft 289 kts 105°
2026-05-04 21:40 39.19399 -77.87957 7031 ft 288 kts 105°
2026-05-04 21:41 39.18914 -77.85463 6757 ft 286 kts 105°
2026-05-04 21:41 39.18436 -77.83012 6482 ft 284 kts 105°
2026-05-04 21:41 39.17954 -77.80544 6206 ft 282 kts 105°
2026-05-04 21:41 39.17478 -77.78099 5925 ft 280 kts 106°
2026-05-04 21:42 39.17005 -77.75682 5657 ft 278 kts 106°
2026-05-04 21:42 39.16531 -77.73267 5388 ft 277 kts 106°
2026-05-04 21:42 39.16062 -77.70883 5131 ft 276 kts 106°
2026-05-04 21:42 39.15589 -77.68471 4857 ft 274 kts 106°
2026-05-04 21:43 39.15127 -77.66110 4587 ft 273 kts 106°
2026-05-04 21:43 39.14662 -77.63744 4312 ft 271 kts 106°
2026-05-04 21:43 39.14204 -77.61419 4040 ft 265 kts 105°
2026-05-04 21:43 39.13756 -77.59148 3782 ft 258 kts 106°
2026-05-04 21:44 39.13326 -77.56965 3688 ft 243 kts 106°
2026-05-04 21:44 39.12919 -77.54919 3566 ft 230 kts 106°
2026-05-04 21:44 39.12537 -77.52975 3466 ft 219 kts 106°
2026-05-04 21:44 39.12170 -77.51118 3363 ft 208 kts 106°
2026-05-04 21:45 39.11815 -77.49327 3268 ft 204 kts 106°
2026-05-04 21:45 39.11585 -77.48167 3192 ft 203 kts 108°
2026-05-04 21:45 39.10906 -77.46610 2896 ft 200 kts 147°
2026-05-04 21:45 39.09654 -77.46085 2742 ft 188 kts 177°
2026-05-04 21:46 39.08361 -77.45922 2483 ft 187 kts 173°
2026-05-04 21:46 39.07078 -77.45770 2235 ft 184 kts 180°
2026-05-04 21:46 39.05830 -77.45792 2010 ft 174 kts 182°
2026-05-04 21:46 39.04661 -77.45820 1807 ft 159 kts 181°
2026-05-04 21:47 39.03586 -77.45835 1568 ft 149 kts 181°
2026-05-04 21:47 39.02557 -77.45840 1371 ft 147 kts 181°
2026-05-04 21:47 39.01539 -77.45845 1163 ft 146 kts 181°
2026-05-04 21:47 39.00525 -77.45874 993 ft 145 kts 182°
2026-05-04 21:48 38.99522 -77.45891 817 ft 144 kts 181°
2026-05-04 21:48 38.98525 -77.45904 642 ft 143 kts 184°
2026-05-04 21:48 38.97529 -77.45935 450 ft 143 kts 181°
2026-05-04 21:48 38.96539 -77.45939 300 ft 136 kts 181°
2026-05-04 21:49 38.95797 -77.45952 303 ft 74 kts 181°
2026-05-04 21:49 38.95358 -77.45958 300 ft 60 kts 180°
2026-05-04 21:49 38.95065 -77.45946 298 ft 33 kts 166°
2026-05-04 21:49 38.94897 -77.45841 301 ft 24 kts 149°
2026-05-04 21:50 38.94761 -77.45739 299 ft 21 kts 159°
2026-05-04 21:50 38.94617 -77.45720 301 ft 21 kts 182°
2026-05-04 21:50 38.94480 -77.45725 300 ft 18 kts 181°
2026-05-04 21:50 38.94429 -77.45618 300 ft 17 kts 92°
2026-05-04 21:51 38.94419 -77.45465 299 ft 17 kts 93°
2026-05-04 21:51 38.94418 -77.45356 299 ft 9 kts 88°
2026-05-04 21:51 38.94433 -77.45280 300 ft 9 kts 64°
2026-05-04 21:51 38.94487 -77.45268 301 ft 6 kts 346°
2026-05-04 21:52 38.94496 -77.45271 299 ft 0 kts 346°